Find OPS 9323

NORAD ID: 2650 Int'l Des: 1967-003 Owner: AFSSD Country: US operational
MEOCIRCULAR

Live-Position

3D-Globus wird geladen...

Über OPS 9323

Beschreibung wird geladen...

Nächste Überflüge

Passes for default location (London). Set your location on the main map for personalized predictions.

Höhenverlauf

Loading altitude history...

Zweizeiliger Elementsatz

1 2650U 67003C 26104.14950921 -.00000078 00000-0 00000+0 0 9998
2 2650 8.1735 45.3426 0032459 110.3273 52.2461 1.08221866139752
Epoch: 14. Apr. 2026 • Age: 23 hours

Aktueller Status

Höhe 33636.6 km
Geschwindigkeit 3.16 km/s
Subsatellitenpunkt 0.83°N, 20.57°W
Typ other

Most Searched